| time (UTC) | temp C | wind direction | speed KPH | gust KPH | rain 1hr cm | rain 24hr cm | rain mn cm | humidity % | barometer mb |
| 20260508111507 | 18 | 129 | 12.9 | 22.5 | 0.00 | 0.00 | 0.00 | 74 | 1012.8 |
| 20260508111005 | 18 | 143 | 8.0 | 17.7 | 0.00 | 0.00 | 0.00 | 75 | 1012.8 |
| 20260508110504 | 18 | 163 | 11.3 | 22.5 | 0.00 | 0.00 | 0.00 | 75 | 1012.9 |
| 20260508110004 | 18 | 117 | 12.9 | 22.5 | 0.00 | 0.00 | 0.00 | 75 | 1012.9 |
| 20260508105503 | 18 | 137 | 8.0 | 17.7 | 0.00 | 0.00 | 0.00 | 76 | 1012.8 |
| 20260508105005 | 17 | 166 | 9.7 | 24.1 | 0.00 | 0.00 | 0.00 | 75 | 1013.1 |
| 20260508104502 | 17 | 96 | 14.5 | 25.7 | 0.00 | 0.00 | 0.00 | 77 | 1013.1 |
| 20260508104002 | 17 | 106 | 16.1 | 25.7 | 0.00 | 0.00 | 0.00 | 76 | 1013.2 |
| 20260508103502 | 17 | 104 | 8.0 | 27.4 | 0.00 | 0.00 | 0.00 | 77 | 1013.6 |
| 20260508103100 | 17 | 103 | 12.9 | 27.4 | 0.00 | 0.00 | 0.00 | 77 | 1013.5 |
| 20260508102559 | 17 | 115 | 14.5 | 22.5 | 0.00 | 0.00 | 0.00 | 77 | 1013.4 |
| 20260508102101 | 17 | 130 | 9.7 | 24.1 | 0.00 | 0.00 | 0.00 | 78 | 1013.4 |
| 20260508101559 | 17 | 215 | 12.9 | 27.4 | 0.00 | 0.00 | 0.00 | 77 | 1013.3 |
| 20260508101058 | 17 | 143 | 12.9 | 29.0 | 0.00 | 0.00 | 0.00 | 78 | 1013.4 |
| 20260508100600 | 17 | 109 | 16.1 | 29.0 | 0.00 | 0.00 | 0.00 | 77 | 1013.2 |
| 20260508100057 | 17 | 128 | 16.1 | 29.0 | 0.00 | 0.00 | 0.00 | 78 | 1013.1 |
| 20260508095555 | 17 | 105 | 9.7 | 24.1 | 0.00 | 0.00 | 0.00 | 79 | 1013.1 |
| 20260508095054 | 17 | 159 | 12.9 | 24.1 | 0.00 | 0.00 | 0.00 | 80 | 1013.1 |
| 20260508094600 | 17 | 104 | 11.3 | 25.7 | 0.00 | 0.00 | 0.00 | 81 | 1013.0 |
| 20260508094053 | 17 | 111 | 17.7 | 25.7 | 0.00 | 0.00 | 0.00 | 81 | 1013.1 |
| 20260508093553 | 17 | 138 | 11.3 | 25.7 | 0.00 | 0.00 | 0.00 | 83 | 1013.0 |
| 20260508093059 | 16 | 115 | 16.1 | 25.7 | 0.00 | 0.00 | 0.00 | 83 | 1013.2 |
| 20260508092553 | 16 | 122 | 19.3 | 29.0 | 0.00 | 0.00 | 0.00 | 83 | 1013.1 |
| 20260508092051 | 16 | 120 | 17.7 | 30.6 | 0.00 | 0.00 | 0.00 | 83 | 1013.1 |
| 20260508091604 | 16 | 111 | 17.7 | 29.0 | 0.00 | 0.00 | 0.00 | 83 | 1012.9 |
| 20260508091051 | 17 | 111 | 16.1 | 29.0 | 0.00 | 0.00 | 0.00 | 84 | 1013.0 |
| 20260508090551 | 16 | 161 | 16.1 | 29.0 | 0.00 | 0.00 | 0.00 | 84 | 1012.9 |
| 20260508090057 | 16 | 130 | 16.1 | 32.2 | 0.00 | 0.00 | 0.00 | 84 | 1012.9 |
| 20260508085550 | 16 | 129 | 17.7 | 32.2 | 0.00 | 0.00 | 0.00 | 83 | 1012.8 |
| 20260508085048 | 17 | 140 | 16.1 | 30.6 | 0.00 | 0.00 | 0.00 | 82 | 1012.8 |
| 20260508084547 | 17 | 128 | 17.7 | 30.6 | 0.00 | 0.00 | 0.00 | 80 | 1012.9 |
| 20260508084046 | 17 | 138 | 16.1 | 30.6 | 0.00 | 0.00 | 0.00 | 76 | 1012.8 |
| 20260508083546 | 17 | 117 | 17.7 | 29.0 | 0.00 | 0.00 | 0.00 | 75 | 1013.0 |
| 20260508083050 | 17 | 126 | 17.7 | 24.1 | 0.00 | 0.00 | 0.00 | 73 | 1012.9 |
| 20260508082546 | 18 | 100 | 17.7 | 24.1 | 0.00 | 0.00 | 0.00 | 73 | 1012.8 |
| 20260508082042 | 17 | 87 | 9.7 | 27.4 | 0.00 | 0.00 | 0.00 | 73 | 1012.6 |
| 20260508081547 | 17 | 123 | 16.1 | 27.4 | 0.00 | 0.00 | 0.00 | 71 | 1012.7 |
| 20260508081042 | 17 | 111 | 14.5 | 24.1 | 0.00 | 0.00 | 0.00 | 70 | 1012.5 |
| 20260508080540 | 17 | 159 | 6.4 | 24.1 | 0.00 | 0.00 | 0.00 | 72 | 1012.5 |
| 20260508080043 | 17 | 130 | 8.0 | 22.5 | 0.00 | 0.00 | 0.00 | 71 | 1012.4 |
| 20260508075540 | 17 | 129 | 11.3 | 24.1 | 0.00 | 0.00 | 0.00 | 73 | 1012.4 |
| 20260508075034 | 17 | 88 | 14.5 | 24.1 | 0.00 | 0.00 | 0.00 | 74 | 1012.6 |
| 20260508074533 | 17 | 110 | 12.9 | 19.3 | 0.00 | 0.00 | 0.00 | 76 | 1012.5 |
| 20260508074032 | 16 | 127 | 8.0 | 17.7 | 0.00 | 0.00 | 0.00 | 77 | 1012.6 |
| 20260508073532 | 16 | 25 | 11.3 | 17.7 | 0.00 | 0.00 | 0.00 | 76 | 1012.7 |
| 20260508073034 | 16 | 92 | 6.4 | 20.9 | 0.00 | 0.00 | 0.00 | 76 | 1012.9 |
| 20260508072531 | 16 | 136 | 8.0 | 20.9 | 0.00 | 0.00 | 0.00 | 77 | 1013.1 |
| 20260508072030 | 16 | 130 | 4.8 | 16.1 | 0.00 | 0.00 | 0.00 | 77 | 1013.1 |
| 20260508071530 | 16 | 113 | 3.2 | 8.0 | 0.00 | 0.00 | 0.00 | 77 | 1013.0 |
| 20260508071032 | 16 | 151 | 0.0 | 8.0 | 0.00 | 0.00 | 0.00 | 76 | 1012.9 |
| 20260508070531 | 16 | 124 | 1.6 | 4.8 | 0.00 | 0.00 | 0.00 | 76 | 1013.0 |
| 20260508070030 | 16 | 213 | 0.0 | 3.2 | 0.00 | 0.00 | 0.00 | 75 | 1012.9 |
| 20260508065529 | 16 | 213 | 0.0 | 6.4 | 0.00 | 0.00 | 0.00 | 75 | 1012.8 |
| 20260508065025 | 16 | 278 | 1.6 | 6.4 | 0.00 | 0.00 | 0.00 | 75 | 1012.8 |
| 20260508064528 | 16 | 17 | 3.2 | 6.4 | 0.00 | 0.00 | 0.00 | 75 | 1012.6 |
| 20260508064026 | 15 | 16 | 0.0 | 6.4 | 0.00 | 0.00 | 0.00 | 76 | 1012.6 |
| 20260508063524 | 15 | 16 | 1.6 | 8.0 | 0.00 | 0.00 | 0.00 | 77 | 1012.4 |
| 20260508063021 | 15 | 11 | 3.2 | 8.0 | 0.00 | 0.00 | 0.00 | 78 | 1012.3 |
| 20260508062522 | 14 | 331 | 3.2 | 6.4 | 0.00 | 0.00 | 0.00 | 78 | 1012.3 |
| 20260508062019 | 14 | 332 | 0.0 | 6.4 | 0.00 | 0.00 | 0.00 | 78 | 1012.3 |
| 20260508061518 | 14 | 332 | 1.6 | 6.4 | 0.00 | 0.00 | 0.00 | 78 | 1012.2 |
| 20260508061018 | 14 | 303 | 3.2 | 6.4 | 0.00 | 0.00 | 0.00 | 78 | 1012.0 |
| 20260508060521 | 13 | 319 | 1.6 | 6.4 | 0.00 | 0.00 | 0.00 | 78 | 1011.8 |
| 20260508060016 | 13 | 299 | 1.6 | 14.5 | 0.00 | 0.00 | 0.00 | 78 | 1011.5 |
| 20260508055515 | 13 | 5 | 6.4 | 14.5 | 0.00 | 0.00 | 0.00 | 78 | 1011.4 |
| 20260508055016 | 13 | 355 | 8.0 | 12.9 | 0.00 | 0.00 | 0.00 | 76 | 1011.4 |
| 20260508054515 | 13 | 360 | 6.4 | 9.7 | 0.00 | 0.00 | 0.00 | 77 | 1011.7 |
| 20260508054012 | 13 | 172 | 1.6 | 9.7 | 0.00 | 0.00 | 0.00 | 78 | 1011.8 |
| 20260508053515 | 13 | 171 | 1.6 | 9.7 | 0.00 | 0.00 | 0.00 | 79 | 1011.8 |
| 20260508053013 | 13 | 348 | 0.0 | 4.8 | 0.00 | 0.00 | 0.00 | 77 | 1011.8 |
| 20260508052511 | 13 | 348 | 1.6 | 6.4 | 0.00 | 0.00 | 0.00 | 76 | 1011.7 |
| 20260508052011 | 13 | 355 | 3.2 | 6.4 | 0.00 | 0.00 | 0.00 | 76 | 1011.4 |
| 20260508051523 | 13 | 337 | 1.6 | 8.0 | 0.00 | 0.00 | 0.00 | 76 | 1011.3 |
| 20260508051011 | 13 | 50 | 3.2 | 14.5 | 0.00 | 0.00 | 0.00 | 76 | 1011.3 |
| 20260508050511 | 13 | 360 | 9.7 | 14.5 | 0.00 | 0.00 | 0.00 | 75 | 1011.5 |
| 20260508050010 | 13 | 355 | 8.0 | 12.9 | 0.00 | 0.00 | 0.00 | 75 | 1011.4 |
| 20260508045509 | 13 | 19 | 8.0 | 12.9 | 0.00 | 0.00 | 0.00 | 75 | 1011.4 |
| 20260508045009 | 13 | 360 | 8.0 | 12.9 | 0.00 | 0.00 | 0.00 | 74 | 1011.5 |
| 20260508044511 | 13 | 355 | 6.4 | 9.7 | 0.00 | 0.00 | 0.00 | 74 | 1011.8 |
| 20260508044009 | 13 | 355 | 4.8 | 9.7 | 0.00 | 0.00 | 0.00 | 74 | 1011.9 |
| 20260508043509 | 13 | 332 | 4.8 | 8.0 | 0.00 | 0.00 | 0.00 | 74 | 1011.8 |
| 20260508043018 | 13 | 355 | 3.2 | 12.9 | 0.00 | 0.00 | 0.00 | 74 | 1012.0 |
| 20260508042510 | 13 | 333 | 3.2 | 12.9 | 0.00 | 0.00 | 0.00 | 74 | 1011.9 |
| 20260508042008 | 13 | 5 | 4.8 | 9.7 | 0.00 | 0.00 | 0.00 | 73 | 1011.8 |
| 20260508041514 | 13 | 5 | 3.2 | 6.4 | 0.00 | 0.00 | 0.00 | 74 | 1011.8 |
| 20260508041009 | 13 | 320 | 1.6 | 8.0 | 0.00 | 0.00 | 0.00 | 74 | 1011.7 |
| 20260508040508 | 13 | 340 | 1.6 | 12.9 | 0.00 | 0.00 | 0.00 | 74 | 1011.7 |
| 20260508040010 | 13 | 335 | 4.8 | 12.9 | 0.00 | 0.00 | 0.00 | 73 | 1011.6 |
| 20260508035512 | 13 | 336 | 1.6 | 4.8 | 0.00 | 0.00 | 0.00 | 74 | 1011.7 |
| 20260508035007 | 13 | 333 | 1.6 | 12.9 | 0.00 | 0.00 | 0.00 | 74 | 1011.7 |
| 20260508034508 | 13 | 331 | 3.2 | 14.5 | 0.00 | 0.00 | 0.00 | 74 | 1011.6 |
| 20260508034007 | 13 | 330 | 3.2 | 14.5 | 0.00 | 0.00 | 0.00 | 74 | 1011.5 |
| 20260508033507 | 13 | 5 | 4.8 | 12.9 | 0.00 | 0.00 | 0.00 | 74 | 1011.7 |
| 20260508033008 | 13 | 333 | 6.4 | 12.9 | 0.00 | 0.00 | 0.00 | 74 | 1011.7 |
| 20260508032507 | 13 | 340 | 6.4 | 12.9 | 0.00 | 0.00 | 0.00 | 75 | 1011.6 |
| 20260508032006 | 12 | 333 | 6.4 | 12.9 | 0.00 | 0.00 | 0.00 | 75 | 1011.6 |
| 20260508031507 | 12 | 341 | 6.4 | 12.9 | 0.00 | 0.00 | 0.00 | 75 | 1011.5 |
| 20260508031008 | 12 | 320 | 6.4 | 12.9 | 0.00 | 0.00 | 0.00 | 75 | 1011.6 |
| 20260508030505 | 12 | 344 | 6.4 | 9.7 | 0.00 | 0.00 | 0.00 | 75 | 1011.8 |
| 20260508030005 | 12 | 348 | 4.8 | 12.9 | 0.00 | 0.00 | 0.00 | 75 | 1011.9 |
| 20260508025510 | 13 | 343 | 6.4 | 12.9 | 0.00 | 0.00 | 0.00 | 76 | 1011.9 |
| 20260508025003 | 13 | 344 | 6.4 | 12.9 | 0.00 | 0.00 | 0.00 | 76 | 1011.9 |
| 20260508024503 | 13 | 350 | 4.8 | 12.9 | 0.00 | 0.00 | 0.00 | 76 | 1011.8 |
| 20260508024003 | 13 | 355 | 4.8 | 12.9 | 0.00 | 0.00 | 0.00 | 76 | 1011.8 |
| 20260508023502 | 13 | 333 | 6.4 | 12.9 | 0.00 | 0.00 | 0.00 | 76 | 1011.9 |
| 20260508023002 | 13 | 323 | 4.8 | 12.9 | 0.00 | 0.00 | 0.00 | 77 | 1011.7 |
| 20260508022502 | 13 | 324 | 4.8 | 9.7 | 0.00 | 0.00 | 0.00 | 77 | 1011.7 |
| 20260508022002 | 13 | 349 | 4.8 | 9.7 | 0.00 | 0.00 | 0.00 | 77 | 1011.7 |
| 20260508021501 | 13 | 321 | 4.8 | 12.9 | 0.00 | 0.00 | 0.00 | 77 | 1011.6 |
| 20260508021003 | 13 | 349 | 8.0 | 14.5 | 0.00 | 0.00 | 0.00 | 77 | 1011.6 |
| 20260508020501 | 13 | 355 | 8.0 | 14.5 | 0.00 | 0.00 | 0.00 | 77 | 1011.7 |
| 20260508015600 | 13 | 332 | 6.4 | 12.9 | 0.00 | 0.00 | 0.00 | 77 | 1011.6 |
| 20260508015059 | 13 | 360 | 8.0 | 14.5 | 0.00 | 0.00 | 0.00 | 77 | 1011.5 |
| 20260508014600 | 13 | 23 | 8.0 | 14.5 | 0.00 | 0.00 | 0.00 | 77 | 1011.4 |
| 20260508014058 | 13 | 355 | 4.8 | 12.9 | 0.00 | 0.00 | 0.00 | 77 | 1011.7 |
| 20260508013556 | 13 | 5 | 8.0 | 14.5 | 0.00 | 0.00 | 0.00 | 77 | 1011.7 |
| 20260508013055 | 13 | 360 | 8.0 | 14.5 | 0.00 | 0.00 | 0.00 | 77 | 1011.7 |
| 20260508012557 | 13 | 5 | 8.0 | 14.5 | 0.00 | 0.00 | 0.00 | 77 | 1011.8 |
| 20260508012056 | 13 | 5 | 9.7 | 16.1 | 0.00 | 0.00 | 0.00 | 77 | 1011.7 |
| 20260508011607 | 13 | 360 | 11.3 | 16.1 | 0.00 | 0.00 | 0.00 | 77 | 1011.8 |
| 20260508011054 | 13 | 5 | 9.7 | 16.1 | 0.00 | 0.00 | 0.00 | 77 | 1011.9 |
| 20260508010553 | 13 | 5 | 8.0 | 14.5 | 0.00 | 0.00 | 0.00 | 77 | 1012.0 |
| 20260508010052 | 13 | 5 | 9.7 | 16.1 | 0.00 | 0.00 | 0.00 | 77 | 1012.1 |
| 20260508005552 | 13 | 360 | 11.3 | 16.1 | 0.00 | 0.00 | 0.00 | 77 | 1012.2 |
| 20260508005052 | 13 | 13 | 11.3 | 16.1 | 0.00 | 0.00 | 0.00 | 77 | 1012.1 |
| 20260508004557 | 13 | 5 | 8.0 | 14.5 | 0.00 | 0.00 | 0.00 | 77 | 1012.3 |
| 20260508004052 | 13 | 5 | 8.0 | 16.1 | 0.00 | 0.00 | 0.00 | 77 | 1012.3 |
| 20260508003552 | 14 | 5 | 9.7 | 17.7 | 0.00 | 0.00 | 0.00 | 77 | 1012.2 |
| 20260508003050 | 13 | 355 | 12.9 | 17.7 | 0.00 | 0.00 | 0.00 | 77 | 1012.4 |
| 20260508002549 | 13 | 347 | 12.9 | 17.7 | 0.00 | 0.00 | 0.00 | 77 | 1012.5 |
| 20260508002049 | 13 | 9 | 12.9 | 16.1 | 0.00 | 0.00 | 0.00 | 78 | 1012.6 |
| 20260508001552 | 13 | 5 | 9.7 | 14.5 | 0.00 | 0.00 | 0.00 | 78 | 1012.7 |
| 20260508001047 | 13 | 5 | 9.7 | 16.1 | 0.00 | 0.00 | 0.00 | 78 | 1012.8 |
| 20260508000547 | 13 | 5 | 11.3 | 16.1 | 0.00 | 0.00 | 0.00 | 78 | 1012.8 |
| 20260508000048 | 13 | 20 | 9.7 | 14.5 | 0.00 | 0.00 | 0.00 | 78 | 1013.0 |
| 20260507235547 | 13 | 360 | 9.7 | 14.5 | 0.00 | 0.00 | 0.00 | 78 | 1013.0 |
| 20260507235048 | 13 | 355 | 9.7 | 12.9 | 0.00 | 0.00 | 0.00 | 78 | 1012.9 |
| 20260507234552 | 13 | 355 | 8.0 | 12.9 | 0.00 | 0.00 | 0.00 | 78 | 1013.0 |
| 20260507234045 | 13 | 18 | 8.0 | 14.5 | 0.00 | 0.00 | 0.00 | 77 | 1013.0 |
| 20260507233545 | 13 | 5 | 9.7 | 14.5 | 0.00 | 0.00 | 0.00 | 77 | 1013.1 |
| 20260507233045 | 13 | 355 | 11.3 | 14.5 | 0.00 | 0.00 | 0.00 | 77 | 1013.1 |
| 20260507232544 | 13 | 355 | 8.0 | 12.9 | 0.00 | 0.00 | 0.00 | 77 | 1013.2 |
| 20260507232045 | 13 | 350 | 6.4 | 14.5 | 0.00 | 0.00 | 0.00 | 77 | 1013.2 |
| 20260507231549 | 13 | 351 | 8.0 | 14.5 | 0.00 | 0.00 | 0.00 | 77 | 1013.2 |
| 20260507231046 | 13 | 355 | 8.0 | 14.5 | 0.00 | 0.00 | 0.00 | 77 | 1013.3 |
| 20260507230541 | 13 | 346 | 9.7 | 14.5 | 0.00 | 0.00 | 0.00 | 77 | 1013.4 |
| 20260507230040 | 13 | 348 | 8.0 | 12.9 | 0.00 | 0.00 | 0.00 | 76 | 1013.4 |
| 20260507225539 | 13 | 350 | 6.4 | 12.9 | 0.00 | 0.00 | 0.00 | 76 | 1013.4 |
| 20260507225037 | 13 | 348 | 4.8 | 8.0 | 0.00 | 0.00 | 0.00 | 76 | 1013.4 |
| 20260507224538 | 14 | 350 | 3.2 | 9.7 | 0.00 | 0.00 | 0.00 | 75 | 1013.3 |
| 20260507224035 | 14 | 346 | 4.8 | 9.7 | 0.00 | 0.00 | 0.00 | 75 | 1013.2 |
| 20260507223534 | 14 | 351 | 6.4 | 9.7 | 0.00 | 0.00 | 0.00 | 74 | 1013.3 |
| 20260507223034 | 14 | 340 | 4.8 | 9.7 | 0.00 | 0.00 | 0.00 | 74 | 1013.3 |
| 20260507222532 | 15 | 325 | 3.2 | 8.0 | 0.00 | 0.00 | 0.00 | 75 | 1013.3 |
| 20260507222032 | 15 | 43 | 0.0 | 0.0 | 0.00 | 0.00 | 0.00 | 75 | 1013.2 |
| 20260507221531 | 15 | 43 | 0.0 | 3.2 | 0.00 | 0.00 | 0.00 | 74 | 1013.1 |
| 20260507221033 | 15 | 43 | 0.0 | 4.8 | 0.00 | 0.00 | 0.00 | 74 | 1013.0 |
| 20260507220528 | 15 | 44 | 0.0 | 3.2 | 0.00 | 0.00 | 0.00 | 74 | 1012.9 |
| 20260507220029 | 15 | 44 | 0.0 | 4.8 | 0.00 | 0.00 | 0.00 | 73 | 1012.7 |
| 20260507215527 | 15 | 44 | 1.6 | 4.8 | 0.00 | 0.00 | 0.00 | 72 | 1012.8 |
| 20260507215025 | 15 | 27 | 0.0 | 3.2 | 0.00 | 0.00 | 0.00 | 71 | 1012.7 |
| 20260507214527 | 15 | 27 | 0.0 | 4.8 | 0.00 | 0.00 | 0.00 | 71 | 1012.7 |
| 20260507214025 | 15 | 27 | 1.6 | 4.8 | 0.00 | 0.00 | 0.00 | 70 | 1012.5 |
| 20260507213526 | 15 | 17 | 1.6 | 8.0 | 0.00 | 0.00 | 0.00 | 69 | 1012.4 |
| 20260507213028 | 15 | 11 | 1.6 | 8.0 | 0.00 | 0.00 | 0.00 | 69 | 1012.5 |
| 20260507212525 | 15 | 27 | 1.6 | 9.7 | 0.00 | 0.00 | 0.00 | 69 | 1012.4 |
| 20260507212027 | 15 | 12 | 3.2 | 9.7 | 0.00 | 0.00 | 0.00 | 69 | 1012.5 |
| 20260507211525 | 15 | 360 | 6.4 | 14.5 | 0.00 | 0.00 | 0.00 | 70 | 1012.5 |
| 20260507211025 | 15 | 5 | 8.0 | 16.1 | 0.00 | 0.00 | 0.00 | 70 | 1012.3 |
| 20260507210525 | 15 | 13 | 9.7 | 16.1 | 0.00 | 0.00 | 0.00 | 70 | 1012.3 |
| 20260507210028 | 15 | 360 | 9.7 | 14.5 | 0.00 | 0.00 | 0.00 | 69 | 1012.4 |
| 20260507205527 | 15 | 11 | 8.0 | 14.5 | 0.00 | 0.00 | 0.00 | 68 | 1012.3 |
| 20260507205023 | 15 | 13 | 9.7 | 14.5 | 0.00 | 0.00 | 0.00 | 69 | 1012.2 |
| 20260507204524 | 15 | 9 | 9.7 | 14.5 | 0.00 | 0.00 | 0.00 | 69 | 1012.1 |
| 20260507204024 | 15 | 15 | 8.0 | 16.1 | 0.00 | 0.00 | 0.00 | 69 | 1012.1 |
| 20260507203528 | 16 | 5 | 9.7 | 16.1 | 0.00 | 0.00 | 0.00 | 69 | 1012.1 |
| 20260507203025 | 16 | 355 | 9.7 | 16.1 | 0.00 | 0.00 | 0.00 | 68 | 1012.0 |
| 20260507202523 | 16 | 13 | 9.7 | 14.5 | 0.00 | 0.00 | 0.00 | 69 | 1011.9 |
| 20260507202022 | 16 | 28 | 9.7 | 14.5 | 0.00 | 0.00 | 0.00 | 68 | 1011.9 |
| 20260507201522 | 15 | 5 | 9.7 | 14.5 | 0.00 | 0.00 | 0.00 | 69 | 1011.8 |
| 20260507201026 | 15 | 14 | 8.0 | 12.9 | 0.00 | 0.00 | 0.00 | 69 | 1011.9 |
| 20260507200522 | 15 | 18 | 6.4 | 8.0 | 0.00 | 0.00 | 0.00 | 70 | 1011.9 |
| 20260507200022 | 15 | 5 | 6.4 | 9.7 | 0.00 | 0.00 | 0.00 | 70 | 1011.7 |
| 20260507195522 | 15 | 5 | 4.8 | 14.5 | 0.00 | 0.00 | 0.00 | 71 | 1011.7 |
| 20260507195021 | 15 | 355 | 8.0 | 14.5 | 0.00 | 0.00 | 0.00 | 71 | 1011.5 |
| 20260507194522 | 15 | 360 | 8.0 | 16.1 | 0.00 | 0.00 | 0.00 | 71 | 1011.5 |
| 20260507194021 | 15 | 355 | 8.0 | 16.1 | 0.00 | 0.00 | 0.00 | 72 | 1011.5 |
| 20260507193525 | 16 | 5 | 8.0 | 12.9 | 0.00 | 0.00 | 0.00 | 73 | 1011.5 |
| 20260507193021 | 16 | 21 | 8.0 | 12.9 | 0.00 | 0.00 | 0.00 | 74 | 1011.5 |
| 20260507192520 | 16 | 5 | 4.8 | 9.7 | 0.00 | 0.00 | 0.00 | 74 | 1011.5 |
| 20260507192021 | 16 | 355 | 6.4 | 12.9 | 0.00 | 0.00 | 0.00 | 75 | 1011.4 |
| 20260507191521 | 16 | 344 | 8.0 | 12.9 | 0.00 | 0.00 | 0.00 | 76 | 1011.5 |
| 20260507191021 | 16 | 360 | 3.2 | 8.0 | 0.00 | 0.00 | 0.00 | 77 | 1011.3 |
| 20260507190521 | 16 | 15 | 1.6 | 6.4 | 0.00 | 0.00 | 0.00 | 77 | 1011.4 |
| 20260507190020 | 16 | 123 | 0.0 | 0.0 | 0.00 | 0.00 | 0.00 | 77 | 1011.4 |
| 20260507185521 | 16 | 123 | 0.0 | 0.0 | 0.00 | 0.00 | 0.00 | 77 | 1011.3 |
| 20260507185019 | 16 | 123 | 0.0 | 0.0 | 0.00 | 0.00 | 0.00 | 77 | 1011.2 |
| 20260507184519 | 16 | 123 | 0.0 | 3.2 | 0.00 | 0.00 | 0.00 | 77 | 1011.1 |
| 20260507184018 | 16 | 123 | 0.0 | 3.2 | 0.00 | 0.00 | 0.00 | 76 | 1011.1 |
| 20260507183518 | 16 | 123 | 0.0 | 3.2 | 0.00 | 0.00 | 0.00 | 76 | 1011.1 |
| 20260507183019 | 16 | 123 | 1.6 | 4.8 | 0.00 | 0.00 | 0.00 | 76 | 1011.1 |
| 20260507182519 | 17 | 123 | 3.2 | 6.4 | 0.00 | 0.00 | 0.00 | 75 | 1011.0 |
| 20260507182021 | 17 | 123 | 3.2 | 6.4 | 0.00 | 0.00 | 0.00 | 74 | 1011.0 |
| 20260507181521 | 17 | 123 | 1.6 | 9.7 | 0.00 | 0.00 | 0.00 | 73 | 1010.8 |
| 20260507181019 | 17 | 117 | 4.8 | 9.7 | 0.00 | 0.00 | 0.00 | 72 | 1010.8 |
| 20260507180518 | 17 | 132 | 3.2 | 8.0 | 0.00 | 0.00 | 0.00 | 71 | 1010.7 |
| 20260507180017 | 17 | 134 | 1.6 | 8.0 | 0.00 | 0.00 | 0.00 | 70 | 1010.6 |
| 20260507175519 | 17 | 126 | 1.6 | 6.4 | 0.00 | 0.00 | 0.00 | 71 | 1010.6 |
| 20260507175016 | 17 | 124 | 3.2 | 6.4 | 0.00 | 0.00 | 0.00 | 70 | 1010.7 |
| 20260507174517 | 18 | 124 | 1.6 | 6.4 | 0.00 | 0.00 | 0.00 | 69 | 1010.5 |
| 20260507174016 | 18 | 130 | 3.2 | 8.0 | 0.00 | 0.00 | 0.00 | 71 | 1010.6 |
| 20260507173516 | 18 | 138 | 3.2 | 8.0 | 0.00 | 0.00 | 0.00 | 72 | 1010.6 |
| 20260507173027 | 18 | 136 | 4.8 | 9.7 | 0.00 | 0.00 | 0.00 | 71 | 1010.6 |
| 20260507172516 | 18 | 126 | 4.8 | 12.9 | 0.00 | 0.00 | 0.00 | 71 | 1010.6 |
| 20260507172021 | 18 | 128 | 6.4 | 12.9 | 0.00 | 0.00 | 0.00 | 71 | 1010.7 |
| 20260507171516 | 18 | 136 | 4.8 | 11.3 | 0.00 | 0.00 | 0.00 | 71 | 1010.6 |
| 20260507171016 | 18 | 126 | 3.2 | 11.3 | 0.00 | 0.00 | 0.00 | 71 | 1010.6 |
| 20260507170517 | 18 | 126 | 4.8 | 12.9 | 0.00 | 0.00 | 0.00 | 71 | 1010.6 |
| 20260507170016 | 18 | 117 | 8.0 | 12.9 | 0.00 | 0.00 | 0.00 | 70 | 1010.5 |
| 20260507165515 | 18 | 135 | 8.0 | 12.9 | 0.00 | 0.00 | 0.00 | 68 | 1010.5 |
| 20260507165015 | 18 | 125 | 6.4 | 14.5 | 0.00 | 0.00 | 0.00 | 67 | 1010.3 |
| 20260507164515 | 18 | 134 | 6.4 | 16.1 | 0.00 | 0.00 | 0.00 | 67 | 1010.3 |
| 20260507164015 | 18 | 143 | 8.0 | 16.1 | 0.00 | 0.00 | 0.00 | 67 | 1010.2 |
| 20260507163515 | 18 | 123 | 8.0 | 14.5 | 0.00 | 0.00 | 0.00 | 69 | 1010.1 |
| 20260507163014 | 18 | 121 | 9.7 | 14.5 | 0.00 | 0.00 | 0.00 | 68 | 1010.2 |
| 20260507162514 | 18 | 119 | 8.0 | 14.5 | 0.00 | 0.00 | 0.00 | 69 | 1010.1 |
| 20260507162014 | 18 | 105 | 9.7 | 16.1 | 0.00 | 0.00 | 0.00 | 68 | 1010.1 |
| 20260507161521 | 18 | 111 | 8.0 | 16.1 | 0.00 | 0.00 | 0.00 | 68 | 1010.1 |
| 20260507161014 | 18 | 119 | 11.3 | 16.1 | 0.00 | 0.00 | 0.00 | 67 | 1010.1 |
| 20260507160514 | 18 | 108 | 9.7 | 17.7 | 0.00 | 0.00 | 0.00 | 66 | 1010.2 |
| 20260507160018 | 18 | 130 | 9.7 | 19.3 | 0.00 | 0.00 | 0.00 | 65 | 1010.2 |
| 20260507155514 | 19 | 127 | 9.7 | 17.7 | 0.00 | 0.00 | 0.00 | 65 | 1010.3 |
| 20260507155013 | 19 | 117 | 11.3 | 16.1 | 0.00 | 0.00 | 0.00 | 65 | 1010.2 |
| 20260507154518 | 19 | 117 | 4.8 | 17.7 | 0.00 | 0.00 | 0.00 | 65 | 1010.2 |
| 20260507154012 | 19 | 106 | 9.7 | 19.3 | 0.00 | 0.00 | 0.00 | 65 | 1010.3 |
| 20260507153516 | 19 | 78 | 14.5 | 19.3 | 0.00 | 0.00 | 0.00 | 64 | 1010.3 |
| 20260507153013 | 19 | 84 | 6.4 | 19.3 | 0.00 | 0.00 | 0.00 | 66 | 1010.3 |
| 20260507152513 | 19 | 111 | 9.7 | 20.9 | 0.00 | 0.00 | 0.00 | 65 | 1010.2 |
| 20260507152012 | 20 | 104 | 12.9 | 20.9 | 0.00 | 0.00 | 0.00 | 65 | 1010.3 |
| 20260507151512 | 20 | 142 | 11.3 | 20.9 | 0.00 | 0.00 | 0.00 | 65 | 1010.2 |
| 20260507151012 | 20 | 146 | 4.8 | 17.7 | 0.00 | 0.00 | 0.00 | 66 | 1010.2 |
| 20260507150516 | 20 | 125 | 9.7 | 19.3 | 0.00 | 0.00 | 0.00 | 66 | 1010.4 |
| 20260507150011 | 20 | 142 | 12.9 | 19.3 | 0.00 | 0.00 | 0.00 | 65 | 1010.3 |
| 20260507145518 | 21 | 176 | 6.4 | 14.5 | 0.00 | 0.00 | 0.00 | 64 | 1010.4 |
| 20260507145010 | 20 | 164 | 3.2 | 8.0 | 0.00 | 0.00 | 0.00 | 63 | 1010.3 |
| 20260507144514 | 20 | 5 | 3.2 | 6.4 | 0.00 | 0.00 | 0.00 | 59 | 1010.5 |
| 20260507144010 | 19 | 137 | 1.6 | 6.4 | 0.00 | 0.00 | 0.00 | 59 | 1010.4 |
| 20260507143510 | 19 | 143 | 1.6 | 12.9 | 0.00 | 0.00 | 0.00 | 59 | 1010.6 |
| 20260507143009 | 20 | 130 | 6.4 | 12.9 | 0.00 | 0.00 | 0.00 | 62 | 1010.6 |
| 20260507142509 | 20 | 128 | 3.2 | 12.9 | 0.00 | 0.00 | 0.00 | 61 | 1010.7 |
| 20260507142017 | 20 | 123 | 3.2 | 9.7 | 0.00 | 0.00 | 0.00 | 63 | 1010.7 |
| 20260507141510 | 20 | 128 | 3.2 | 9.7 | 0.00 | 0.00 | 0.00 | 60 | 1010.9 |
| 20260507141009 | 20 | 56 | 3.2 | 9.7 | 0.00 | 0.00 | 0.00 | 58 | 1011.0 |
| 20260507140508 | 21 | 350 | 3.2 | 9.7 | 0.00 | 0.00 | 0.00 | 59 | 1011.0 |
| 20260507140008 | 21 | 78 | 1.6 | 12.9 | 0.00 | 0.00 | 0.00 | 60 | 1011.1 |
| 20260507135505 | 20 | 322 | 6.4 | 12.9 | 0.00 | 0.00 | 0.00 | 61 | 1011.3 |
| 20260507135004 | 20 | 16 | 4.8 | 12.9 | 0.00 | 0.00 | 0.00 | 65 | 1011.4 |
| 20260507134503 | 19 | 36 | 4.8 | 14.5 | 0.00 | 0.00 | 0.00 | 66 | 1011.5 |
| 20260507134005 | 18 | 91 | 8.0 | 14.5 | 0.00 | 0.00 | 0.00 | 70 | 1011.7 |
| 20260507133600 | 18 | 27 | 6.4 | 11.3 | 0.00 | 0.00 | 0.00 | 73 | 1011.6 |
| 20260507133059 | 17 | 161 | 1.6 | 6.4 | 0.00 | 0.00 | 0.00 | 77 | 1011.8 |
| 20260507132600 | 17 | 117 | 1.6 | 6.4 | 0.00 | 0.00 | 0.00 | 77 | 1011.8 |
| 20260507132056 | 16 | 115 | 3.2 | 6.4 | 0.00 | 0.00 | 0.00 | 78 | 1011.9 |
| 20260507131557 | 16 | 115 | 0.0 | 4.8 | 0.00 | 0.00 | 0.00 | 78 | 1011.9 |
| 20260507131057 | 16 | 111 | 0.0 | 4.8 | 0.00 | 0.00 | 0.00 | 79 | 1012.0 |
| 20260507130557 | 16 | 109 | 1.6 | 4.8 | 0.00 | 0.00 | 0.00 | 80 | 1012.1 |
| 20260507130108 | 16 | 109 | 1.6 | 4.8 | 0.00 | 0.00 | 0.00 | 80 | 1012.1 |
| 20260507125556 | 16 | 109 | 0.0 | 6.4 | 0.00 | 0.00 | 0.00 | 79 | 1012.2 |
| 20260507125058 | 16 | 109 | 1.6 | 6.4 | 0.00 | 0.00 | 0.00 | 79 | 1012.2 |
| 20260507124559 | 16 | 109 | 0.0 | 6.4 | 0.00 | 0.00 | 0.00 | 80 | 1012.2 |
| 20260507124056 | 16 | 109 | 1.6 | 9.7 | 0.00 | 0.00 | 0.00 | 80 | 1012.3 |
| 20260507123555 | 16 | 112 | 4.8 | 9.7 | 0.00 | 0.00 | 0.00 | 81 | 1012.3 |
| 20260507123055 | 16 | 138 | 1.6 | 4.8 | 0.00 | 0.00 | 0.00 | 81 | 1012.2 |
| 20260507122556 | 16 | 161 | 1.6 | 8.0 | 0.00 | 0.00 | 0.00 | 81 | 1012.3 |
| 20260507122055 | 16 | 161 | 0.0 | 9.7 | 0.00 | 0.00 | 0.00 | 81 | 1012.4 |
| 20260507121555 | 16 | 162 | 3.2 | 9.7 | 0.00 | 0.00 | 0.00 | 80 | 1012.3 |
| 20260507121058 | 16 | 186 | 3.2 | 9.7 | 0.00 | 0.00 | 0.00 | 80 | 1012.5 |
| 20260507120555 | 16 | 146 | 3.2 | 11.3 | 0.00 | 0.00 | 0.00 | 81 | 1012.4 |
| 20260507120054 | 16 | 132 | 3.2 | 12.9 | 0.00 | 0.00 | 0.00 | 81 | 1012.5 |
| 20260507115554 | 16 | 167 | 4.8 | 12.9 | 0.00 | 0.00 | 0.00 | 82 | 1012.5 |
| 20260507115053 | 16 | 128 | 4.8 | 8.0 | 0.00 | 0.00 | 0.00 | 83 | 1012.5 |
| 20260507114557 | 16 | 158 | 1.6 | 11.3 | 0.00 | 0.00 | 0.00 | 84 | 1012.5 |
| 20260507114053 | 16 | 134 | 3.2 | 12.9 | 0.00 | 0.00 | 0.00 | 83 | 1012.5 |
| 20260507113552 | 16 | 117 | 4.8 | 14.5 | 0.00 | 0.00 | 0.00 | 83 | 1012.6 |
| 20260507113052 | 16 | 127 | 6.4 | 17.7 | 0.00 | 0.00 | 0.00 | 82 | 1012.6 |
| 20260507112553 | 16 | 114 | 12.9 | 22.5 | 0.00 | 0.00 | 0.00 | 80 | 1012.6 |
| 20260507112053 | 16 | 115 | 14.5 | 22.5 | 0.00 | 0.00 | 0.00 | 78 | 1012.5 |